Weather History for Avalon, VC

Change the Weather History Date:

Thursday, August 22, 2013

  Actual Average (YMML) Record (YMML)
Temperature  
Mean Temperature 54 °F -  
Max Temperature 59 °F 57 °F 66 °F (2012)
Min Temperature 48 °F 41 °F 37 °F (2007)
Degree Days  
Heating Degree Days 12    
Growing Degree Days 4 (Base 50)    
Moisture  
Dew Point 44 °F    
Average Humidity 73    
Maximum Humidity 88    
Minimum Humidity 44    
Precipitation  
Precipitation 0.04 in - - ()
Sea Level Pressure  
Sea Level Pressure 29.72 in    
Wind  
Wind Speed 17 mph ()    
Max Wind Speed 26 mph    
Max Gust Speed 38 mph    
Visibility 6.2 miles    
Events Rain    
Averages and records for this station are not official NWS values.
T = Trace of Precipitation, MM = Missing Value Source: Averaged Metar Reports

Daily Weather History Graph

Daily Weather History Graph

Search for Another Location

Airport:

Trip Planner

Search our weather history database for the weather conditions in past years. The results will help you decide how hot, cold, wet, or windy it might be!

Date:

Astronomy

Aug. 22, 2013 Rise Set
Actual Time 6:58 AM EST 5:52 PM EST
Civil Twilight 6:31 AM EST 6:18 PM EST
Nautical Twilight 6:00 AM EST 6:49 PM EST
Astronomical Twilight 5:30 AM EST 7:20 PM EST
Moon 7:20 PM EST (8/22) 7:10 AM EST (8/22)
Length of Visible Light 11h 47m
Length of Day
10h 53m
Full, 99% of the Moon is Illuminated
Aug 22
Full
Aug 28
Last Quarter
Sep 5
New
Sep 13
First Quarter
Sep 19
Full

Hourly Weather History & Observations

Time (EST) Temp. Dew Point Humidity Pressure Visibility Wind Dir Wind Speed Gust Speed Precip Events Conditions
12:00 AM 49 °F 42 °F 70% 29.76 in - NNW 17.3 mph - -   Overcast
12:00 AM 50.0 °F 42.8 °F 76% 29.74 in 6.2 mi NNW 17.3 mph - N/A   Scattered Clouds
12:30 AM 48.2 °F 42.8 °F 82% 29.74 in 6.2 mi NNW 16.1 mph - N/A   Unknown
1:00 AM 48.2 °F 42.8 °F 82% 29.71 in 6.2 mi NNW 16.1 mph - N/A   Unknown
1:30 AM 50.0 °F 42.8 °F 76% 29.74 in 6.2 mi NW 12.7 mph - N/A   Overcast
2:00 AM 50.0 °F 42.8 °F 76% 29.74 in 6.2 mi NW 12.7 mph - N/A   Overcast
2:30 AM 50.0 °F 42.8 °F 76% 29.74 in 6.2 mi WNW 10.4 mph - N/A   Overcast
3:00 AM 50 °F 44 °F 72% 29.73 in - NNW 18.4 mph - -   Overcast
3:00 AM 50.0 °F 44.6 °F 82% 29.71 in 6.2 mi NNW 18.4 mph - N/A   Overcast
3:30 AM 50.0 °F 44.6 °F 82% 29.71 in 6.2 mi NW 15.0 mph - N/A   Overcast
4:00 AM 51.8 °F 42.8 °F 71% 29.71 in 6.2 mi NW 13.8 mph - N/A   Overcast
4:30 AM 50.0 °F 42.8 °F 76% 29.71 in 6.2 mi NW 15.0 mph - N/A   Overcast
5:00 AM 50.0 °F 42.8 °F 76% 29.71 in 6.2 mi NW 15.0 mph - N/A   Overcast
5:30 AM 50.0 °F 42.8 °F 76% 29.71 in 6.2 mi NW 16.1 mph - N/A   Overcast
6:00 AM 50 °F 42 °F 67% 29.74 in - NW 17.3 mph - -   Overcast
6:00 AM 50.0 °F 42.8 °F 76% 29.71 in 6.2 mi NW 17.3 mph - N/A   Overcast
6:30 AM 50.0 °F 42.8 °F 76% 29.74 in 6.2 mi NW 16.1 mph - N/A   Scattered Clouds
7:00 AM 50.0 °F 42.8 °F 76% 29.74 in 6.2 mi NW 16.1 mph - N/A   Mostly Cloudy
7:30 AM 50.0 °F 42.8 °F 76% 29.77 in 6.2 mi WNW 19.6 mph - N/A   Overcast
8:00 AM 50.0 °F 42.8 °F 76% 29.77 in 6.2 mi WNW 19.6 mph - N/A   Overcast
8:30 AM 50.0 °F 42.8 °F 76% 29.77 in 6.2 mi WNW 21.9 mph - N/A   Mostly Cloudy
9:00 AM 52 °F 43 °F 62% 29.78 in - WNW 21.9 mph - -  
9:00 AM 51.8 °F 42.8 °F 71% 29.77 in 6.2 mi WNW 21.9 mph - N/A   Unknown
9:30 AM 53.6 °F 44.6 °F 72% 29.77 in 6.2 mi WNW 19.6 mph - N/A   Scattered Clouds
10:00 AM 55.4 °F 44.6 °F 67% 29.77 in 6.2 mi WNW 20.7 mph - N/A   Scattered Clouds
10:30 AM 55.4 °F 44.6 °F 67% 29.77 in 6.2 mi WNW 19.6 mph - N/A   Scattered Clouds
11:00 AM 57.2 °F 46.4 °F 67% 29.74 in 6.2 mi WNW 20.7 mph - N/A   Scattered Clouds
11:30 AM 57.2 °F 44.6 °F 63% 29.77 in 6.2 mi West 23.0 mph - N/A   Scattered Clouds
12:00 PM 58 °F 43 °F 46% 29.76 in - WNW 24.2 mph - -   Overcast
12:00 PM 59.0 °F 42.8 °F 55% 29.74 in 6.2 mi WNW 24.2 mph - N/A   Mostly Cloudy
12:30 PM 57.2 °F 42.8 °F 59% 29.74 in 6.2 mi WNW 24.2 mph - N/A   Mostly Cloudy
1:00 PM 57.2 °F 42.8 °F 59% 29.71 in 6.2 mi NW 23.0 mph - N/A   Mostly Cloudy
1:31 PM 57.2 °F 42.8 °F 59% 29.71 in 6.2 mi NW 23.0 mph 34.5 mph N/A   Mostly Cloudy
2:00 PM 57.2 °F 42.8 °F 59% 29.71 in 6.2 mi NW 21.9 mph - N/A   Mostly Cloudy
2:30 PM 59.0 °F 42.8 °F 55% 29.68 in 6.2 mi NW 20.7 mph - N/A   Scattered Clouds
3:00 PM 59 °F 43 °F 44% 29.70 in - NW 21.9 mph - -   Overcast
3:00 PM 59.0 °F 42.8 °F 55% 29.68 in 6.2 mi NW 21.9 mph - N/A   Mostly Cloudy
3:08 PM 59.0 °F 41.0 °F 51% 29.68 in 6.2 mi NW 21.9 mph 38.0 mph N/A   Mostly Cloudy
3:34 PM 57.2 °F 42.8 °F 59% 29.68 in 6.2 mi NW 21.9 mph 33.4 mph N/A   Mostly Cloudy
4:00 PM 55.4 °F 44.6 °F 67% 29.68 in 6.2 mi NW 26.5 mph - N/A   Drizzle
4:30 PM 53.6 °F 46.4 °F 77% 29.68 in 6.2 mi NW 18.4 mph - N/A Rain Light Rain
5:00 PM 53.6 °F 46.4 °F 77% 29.68 in 6.2 mi NW 19.6 mph - N/A Rain Light Rain
5:30 PM 51.8 °F 48.2 °F 88% 29.68 in 6.2 mi NW 15.0 mph - N/A Rain Light Rain
6:00 PM 52 °F 47 °F 76% 29.68 in - NW 17.3 mph - -   Overcast
6:00 PM 51.8 °F 46.4 °F 82% 29.68 in 6.2 mi NW 17.3 mph - N/A Rain Light Rain Showers
6:12 PM 51.8 °F 46.4 °F 82% 29.68 in 6.2 mi NW 20.7 mph 32.2 mph N/A Rain Light Rain Showers
6:30 PM 51.8 °F 46.4 °F 82% 29.68 in 6.2 mi NW 19.6 mph - N/A Rain Light Rain Showers
7:00 PM 51.8 °F 46.4 °F 82% 29.68 in 6.2 mi NW 17.3 mph - N/A   Overcast
7:30 PM 51.8 °F 46.4 °F 82% 29.68 in 6.2 mi WNW 17.3 mph - N/A   Overcast
8:00 PM 51.8 °F 48.2 °F 88% 29.68 in 6.2 mi WNW 20.7 mph - N/A Rain Light Rain Showers
8:30 PM 53.6 °F 46.4 °F 77% 29.68 in 6.2 mi NW 19.6 mph - N/A   Overcast
8:54 PM 53.6 °F 46.4 °F 77% 29.68 in 6.2 mi WNW 23.0 mph 34.5 mph N/A Rain Light Rain Showers
9:00 PM 53.6 °F 48.2 °F 82% 29.68 in 6.2 mi WNW 25.3 mph 38.0 mph N/A Rain Light Rain Showers
9:30 PM 51.8 °F 48.2 °F 88% 29.68 in 6.2 mi NW 20.7 mph - N/A Rain Light Rain Showers
10:00 PM 51.8 °F 48.2 °F 88% 29.68 in 6.2 mi WNW 24.2 mph - N/A   Mostly Cloudy
10:30 PM 51.8 °F 48.2 °F 88% 29.68 in 6.2 mi WNW 20.7 mph - N/A   Overcast
11:00 PM 51.8 °F 48.2 °F 88% 29.68 in 6.2 mi WNW 20.7 mph - N/A   Overcast
11:30 PM 53.6 °F 48.2 °F 82% 29.68 in 6.2 mi WNW 21.9 mph - N/A   Overcast